[[{"header":{"parameterUnit":"m.s-1","parameterCategory":1,"la1":30.2991,"la2":30.254,"lo1":-89.0895,"lo2":-89.0444,"dy":0.0017,"dx":0.0017,"nx":28,"ny":28,"refTime":"2024-05-07T21:00:00:Z","depth":0,"parameterNumber":2,"parameterNumberName":"U-component_of_WINDS"},"data":[0,0,0,0,0,0,0,0,0,0,0,0,0,0,0,0,0,0,0,0,0,0,0,0,0,0,0,0,0,0,0,0,0,0,0,0,0,0,0,0,0,0,0,0,0,0,0,0,0,0,0,0,0,0,0,0,0,0,-2.0025,-2.0025,0,-2.0045,-2.0045,-2.0045,-2.0043,-2.0043,-2.0042,-2.0042,-2.0063,-2.0064,-2.0065,0,0,0,0,0,0,0,0,0,0,0,0,0,-1.9986,-1.9986,-2.0025,-2.0025,-2.0025,-2.0045,-2.0045,-2.0045,-2.0043,-2.0043,-2.0042,-2.0042,-2.0063,-2.0064,-2.0065,0,0,0,0,0,0,0,0,0,0,0,0,0,-2.0004,-1.9987,-2.0025,-2.0026,-2.0027,-2.0044,-2.0045,-2.0045,-2.0043,-2.0043,-2.0042,-2.0042,-2.0062,-2.0064,-2.0065,-2.0082,0,0,-2.0069,-2.0069,0,0,0,0,0,0,0,0,-2.0003,-2.0005,-2.0026,-2.0026,-2.0027,-2.0041,-2.0039,-2.0058,-2.0043,-2.0037,-2.0042,-2.0042,-2.0056,-2.0058,-2.0063,-2.0083,-2.0084,-2.0069,-2.007,-2.007,-2.007,0,0,0,0,0,0,0,-2.0002,-2.0004,-2.0033,-2.0026,-2.0027,-2.0027,-2.0029,-2.0042,-2.0049,-2.0038,-2.0037,-2.004,-2.0056,-2.0061,-2.0063,-2.0084,-2.0069,-2.007,-2.0071,-2.0071,-2.012,-2.0121,0,0,0,0,0,0,-2.0,-2.0003,-2.0032,-2.0033,-2.0013,-2.0028,-2.003,-2.0037,-2.0049,-2.005,-2.004,-2.004,-2.0059,-2.0062,-2.0064,-2.0085,-2.007,-2.0071,-2.0072,-2.012,-2.012,-2.0121,0,0,0,0,0,0,-1.9999,-2.0002,-2.0031,-2.0018,-2.0022,-2.0029,-2.0037,-2.0037,-2.0043,-2.0051,-2.0052,-2.0044,-2.0059,-2.0062,-2.0078,-2.0085,-2.0072,-2.0073,-2.0119,-2.012,-2.0121,-2.0127,0,0,0,0,0,0,-1.9998,-2.0002,-2.0008,-2.0018,-2.0023,-2.0044,-2.0037,-2.0038,-2.0045,-2.0044,-2.0055,-2.0056,-2.0059,-2.0076,-2.0079,-2.0087,-2.0074,-2.0118,-2.012,-2.012,-2.0126,-2.0128,-2.0129,0,0,0,0,0,-1.9996,-2.0009,-2.0009,-2.0012,-2.0031,-2.0045,-2.0047,-2.005,-2.0045,-2.0052,-2.0057,-2.0056,-2.0084,-2.0077,-2.0081,-2.0089,-2.0118,-2.0119,-2.012,-2.0125,-2.0128,-2.0129,0,0,0,0,0,0,-2.0,-2.0011,-2.001,-2.0026,-2.0035,-2.0044,-2.0053,-2.0052,-2.0062,-2.0061,-2.0065,-2.0067,-2.0083,-2.0088,-2.008,-2.0107,-2.0101,-2.0102,-2.0103,-2.0105,-2.0107,-2.0105,-2.0075,0,0,0,0,0,-2.0003,-2.0013,-2.0022,-2.0036,-2.004,-2.0046,-2.0052,-2.0053,-2.0062,-2.0066,-2.0072,-2.0081,-2.0092,-2.0099,-2.0109,-2.0127,-2.0129,-2.0135,-2.0137,-2.0138,-2.0139,-2.015,-2.0152,-2.0125,-2.0125,-2.0125,0,0,-2.0008,-2.0015,-2.0022,-2.0036,-2.0043,-2.0054,-2.0048,-2.006,-2.0068,-2.0067,-2.0083,-2.0088,-2.0098,-2.0115,-2.0122,-2.0119,-2.0148,-2.0139,-2.014,-2.0141,-2.0151,-2.0154,-2.0156,-2.0126,-2.0126,-2.0126,0,0,-2.0024,-2.003,-2.0043,-2.0049,-2.006,-2.0063,-2.0066,-2.0076,-2.008,-2.0095,-2.0095,-2.0105,-2.0124,-2.0131,-2.0137,-2.0156,-2.0155,-2.016,-2.0168,-2.0178,-2.018,-2.0182,-2.0189,-2.0192,-2.0161,-2.0161,-2.0161,0,-2.003,-2.0046,-2.0049,-2.0061,-2.0068,-2.0067,-2.008,-2.0087,-2.01,-2.0104,-2.0101,-2.0125,-2.0132,-2.015,-2.0155,-2.016,-2.0164,-2.0158,-2.018,-2.0182,-2.0184,-2.019,-2.0193,-2.0162,-2.0162,-2.0162,-2.0162,0,-2.0053,-2.0064,-2.0073,-2.0085,-2.0093,-2.0105,-2.0111,-2.0118,-2.0119,-2.0124,-2.014,-2.0148,-2.016,-2.0165,-2.0166,-2.0184,-2.0182,-2.0179,-2.0172,-2.0187,-2.0193,-2.0196,-2.0163,-2.0162,-2.0162,-2.0162,0,0,-2.0071,-2.0085,-2.0088,-2.0094,-2.0106,-2.0115,-2.0127,-2.0139,-2.0146,-2.0155,-2.0166,-2.0182,-2.018,-2.0187,-2.0189,-2.0198,-2.0213,-2.0194,-2.0194,-2.0197,-2.0233,-2.0235,-2.0238,-2.0213,-2.0213,-2.0213,-2.0232,0,-2.0088,-2.0109,-2.0113,-2.0132,-2.0143,-2.0143,-2.0154,-2.0163,-2.0167,-2.0177,-2.0183,-2.0194,-2.019,-2.0195,-2.0203,-2.0209,-2.022,-2.0208,-2.0223,-2.0223,-2.022,-2.0241,-2.0243,-2.0261,-2.0235,-2.0235,-2.0236,0,-2.011,-2.012,-2.014,-2.0151,-2.0155,-2.0165,-2.0177,-2.0186,-2.0196,-2.0199,-2.0207,-2.0208,-2.0222,-2.0215,-2.0234,-2.0226,-2.0232,-2.0236,-2.0237,-2.0238,-2.023,-2.0243,-2.0266,-2.0269,-2.024,-2.0239,-2.0239,0,-2.0121,-2.014,-2.0154,-2.0159,-2.0172,-2.0179,-2.0184,-2.0194,-2.0201,-2.0211,-2.0216,-2.0228,-2.0234,-2.0244,-2.0248,-2.0243,-2.0267,-2.026,-2.027,-2.027,-2.0274,-2.0274,-2.0299,-2.0279,-2.0279,-2.0279,-2.0279,0,-2.014,-2.0152,-2.016,-2.0169,-2.0183,-2.0187,-2.0201,-2.0206,-2.0215,-2.0225,-2.0226,-2.0236,-2.0242,-2.0252,-2.0256,-2.0271,-2.0274,-2.0277,-2.0278,-2.0277,-2.0277,-2.0281,-2.028,-2.028,-2.0279,-2.0279,-2.0279,0,-2.0155,-2.016,-2.0176,-2.0186,-2.0189,-2.0199,-2.0209,-2.0218,-2.0222,-2.0236,-2.0239,-2.0247,-2.0259,-2.0265,-2.0281,-2.0284,-2.0301,-2.0301,-2.0297,-2.0298,-2.0307,-2.0306,-2.0335,-2.0339,-2.0317,-2.0317,-2.0317,0,-2.0166,-2.0176,-2.0187,-2.0194,-2.02,-2.0211,-2.0218,-2.0223,-2.0231,-2.0243,-2.0251,-2.0263,-2.0274,-2.0294,-2.0301,-2.0314,-2.0314,-2.0323,-2.0316,-2.0315,-2.0314,-2.0313,-2.0315,-2.0325,-2.0325,-2.0325,-2.0325,0,-2.0186,-2.0188,-2.0198,-2.021,-2.0219,-2.0228,-2.0237,-2.0243,-2.0249,-2.0258,-2.0271,-2.0279,-2.0295,-2.0308,-2.0321,-2.0327,-2.0327,-2.0328,-2.033,-2.0329,-2.0327,-2.0329,-2.0301,-2.0327,-2.0327,-2.0327,-2.0327,-2.0326,-2.02,-2.0208,-2.0218,-2.0229,-2.0237,-2.0245,-2.0254,-2.026,-2.0271,-2.0284,-2.0287,-2.0301,-2.0311,-2.0328,-2.0335,-2.0346,-2.0344,-2.0348,-2.0349,-2.035,-2.035,-2.0325,-2.0348,-2.0348,-2.0348,-2.0348,-2.0348,0,-2.022,-2.0226,-2.0236,-2.0249,-2.0258,-2.0258,-2.0268,-2.0276,-2.0288,-2.0297,-2.0308,-2.0323,-2.0335,-2.0344,-2.0357,-2.0364,-2.0365,-2.0367,-2.0367,-2.0368,-2.0351,-2.0348,-2.0366,-2.0366,-2.0366,-2.0366,-2.0366,-2.0366,-2.0231,-2.0246,-2.0249,-2.0268,-2.0274,-2.0287,-2.0293,-2.0301,-2.0309,-2.0325,-2.0336,-2.0341,-2.035,-2.0364,-2.0375,-2.0377,-2.0382,-2.0385,-2.0387,-2.0371,-2.0369,-2.0367,-2.0364,-2.0386,-2.0386,-2.0403,-2.0403,-2.0403]},{"header":{"parameterUnit":"m.s-1","parameterCategory":1,"la1":30.2991,"la2":30.254,"lo1":-89.0895,"lo2":-89.0444,"dy":0.0017,"dx":0.0017,"nx":28,"ny":28,"refTime":"2024-05-07T21:00:00:Z","depth":0,"parameterNumber":3,"parameterNumberName":"V-component_of_WINDS"},"data":[0,0,0,0,0,0,0,0,0,0,0,0,0,0,0,0,0,0,0,0,0,0,0,0,0,0,0,0,0,0,0,0,0,0,0,0,0,0,0,0,0,0,0,0,0,0,0,0,0,0,0,0,0,0,0,0,0,0,7.1545,7.1547,0,7.1703,7.1705,7.1706,7.1695,7.1693,7.1691,7.1688,7.1843,7.1849,7.1856,0,0,0,0,0,0,0,0,0,0,0,0,0,7.1228,7.1233,7.1545,7.1547,7.1549,7.1702,7.1705,7.1707,7.1696,7.1693,7.169,7.1687,7.1841,7.1849,7.1856,0,0,0,0,0,0,0,0,0,0,0,0,0,7.1373,7.1235,7.1544,7.1562,7.1565,7.1702,7.1705,7.1707,7.1696,7.1693,7.1689,7.1686,7.1839,7.1848,7.1857,7.1985,0,0,7.1886,7.189,0,0,0,0,0,0,0,0,7.1365,7.1385,7.1557,7.1561,7.1565,7.1676,7.165,7.18,7.1697,7.1646,7.1688,7.1684,7.179,7.1803,7.184,7.1992,7.1999,7.1887,7.1893,7.1897,7.1899,0,0,0,0,0,0,0,7.1355,7.1378,7.1607,7.156,7.1564,7.156,7.1577,7.1678,7.1735,7.165,7.165,7.1669,7.1791,7.1831,7.1844,7.2001,7.1887,7.1895,7.1901,7.1904,7.2266,7.227,0,0,0,0,0,0,7.1342,7.137,7.1602,7.1612,7.1454,7.1568,7.1587,7.1644,7.1734,7.1745,7.1672,7.1668,7.1817,7.1833,7.1849,7.2005,7.1897,7.1905,7.1911,7.2262,7.2267,7.2271,0,0,0,0,0,0,7.1335,7.1363,7.1596,7.1491,7.152,7.1578,7.1641,7.1649,7.1689,7.1751,7.176,7.1703,7.1815,7.1836,7.1952,7.201,7.191,7.1918,7.2258,7.2264,7.2269,7.2317,0,0,0,0,0,0,7.1326,7.136,7.1411,7.1492,7.1526,7.1698,7.1645,7.1654,7.1706,7.1702,7.1782,7.1792,7.1814,7.1938,7.1961,7.2021,7.1926,7.2253,7.226,7.2267,7.2311,7.2324,7.2336,0,0,0,0,0,7.1315,7.1416,7.1413,7.1441,7.1591,7.1701,7.172,7.1745,7.171,7.1761,7.1801,7.1789,7.2,7.195,7.1976,7.204,7.2249,7.2258,7.2267,7.2305,7.2322,7.2335,0,0,0,0,0,0,7.1338,7.1427,7.1425,7.1557,7.1622,7.1699,7.1763,7.1761,7.1836,7.1829,7.1854,7.1873,7.1989,7.2026,7.1968,7.2168,7.212,7.2134,7.214,7.2156,7.2168,7.2156,7.1933,0,0,0,0,0,7.1359,7.1443,7.1516,7.1625,7.1658,7.1705,7.1754,7.1768,7.1835,7.1862,7.1911,7.1975,7.2055,7.2108,7.2186,7.2316,7.2333,7.2373,7.2386,7.2395,7.2407,7.2479,7.2498,7.2301,7.23,7.23,0,0,7.1402,7.1461,7.1512,7.1631,7.1683,7.1768,7.1728,7.182,7.1883,7.1875,7.1989,7.2027,7.2099,7.2224,7.2281,7.2258,7.2466,7.2407,7.2414,7.2421,7.249,7.2509,7.2525,7.2307,7.2305,7.2305,0,0,7.1524,7.1578,7.1675,7.1728,7.1809,7.184,7.1863,7.1941,7.1967,7.2082,7.2078,7.2152,7.2291,7.2343,7.2388,7.2531,7.2523,7.2556,7.262,7.269,7.2705,7.2719,7.277,7.2788,7.2568,7.2568,7.2568,0,7.1566,7.1697,7.1724,7.1817,7.1869,7.1869,7.1967,7.2017,7.2117,7.2152,7.2126,7.2301,7.235,7.2486,7.2521,7.2558,7.2584,7.2546,7.2701,7.2716,7.2729,7.2777,7.2796,7.2571,7.2571,7.257,7.257,0,7.1745,7.1835,7.1904,7.2004,7.2063,7.2158,7.2198,7.2255,7.2264,7.2297,7.2413,7.2472,7.2562,7.2596,7.2604,7.2734,7.2717,7.2696,7.2648,7.2751,7.2797,7.2815,7.2576,7.2575,7.2574,7.2573,0,0,7.1885,7.2,7.2025,7.207,7.216,7.2229,7.2323,7.2414,7.2461,7.2531,7.261,7.2728,7.2709,7.276,7.2774,7.2836,7.2945,7.2807,7.2809,7.283,7.3091,7.3106,7.3127,7.2941,7.2945,7.2948,7.3085,0,7.2016,7.2186,7.2213,7.2361,7.2444,7.2446,7.2528,7.2591,7.2624,7.2698,7.2734,7.2818,7.2787,7.2818,7.2879,7.2919,7.2998,7.291,7.3013,7.3016,7.2994,7.3151,7.3167,7.3294,7.3103,7.3106,7.3108,0,7.2191,7.2268,7.2425,7.2503,7.2539,7.2613,7.2698,7.277,7.284,7.286,7.2918,7.2925,7.3022,7.297,7.3102,7.3042,7.3085,7.3111,7.3117,7.3127,7.3068,7.3164,7.3334,7.3353,7.3137,7.3134,7.3132,0,7.2277,7.2419,7.2532,7.2571,7.2665,7.2717,7.2758,7.2826,7.2878,7.2952,7.2986,7.307,7.3115,7.3179,7.3208,7.3168,7.3338,7.3289,7.3356,7.3355,7.3391,7.3388,7.3569,7.342,7.342,7.342,7.3419,0,7.242,7.2515,7.2572,7.2641,7.2748,7.2778,7.2883,7.2922,7.2983,7.3058,7.3064,7.3134,7.3169,7.3244,7.3267,7.3373,7.3393,7.3411,7.3416,7.341,7.3408,7.3439,7.343,7.3425,7.3424,7.3423,7.3422,0,7.2533,7.2575,7.2698,7.2778,7.2801,7.2876,7.2943,7.301,7.3044,7.3139,7.3163,7.3216,7.3304,7.334,7.3448,7.3464,7.3585,7.3584,7.3562,7.3564,7.3629,7.3622,7.3836,7.3865,7.3697,7.3698,7.37,0,7.2621,7.2696,7.2785,7.2837,7.2881,7.2964,7.3019,7.3051,7.3107,7.3194,7.325,7.3339,7.3412,7.3554,7.36,7.3683,7.3683,7.3752,7.3695,7.3687,7.3683,7.3678,7.3685,7.3762,7.3764,7.3765,7.3766,0,7.2773,7.2791,7.287,7.2958,7.3023,7.3093,7.3161,7.3202,7.3245,7.3308,7.34,7.3457,7.3569,7.3657,7.3743,7.3783,7.3781,7.3784,7.3804,7.3798,7.3783,7.3792,7.359,7.3779,7.3777,7.3776,7.3776,7.3775,7.2877,7.2943,7.3016,7.3105,7.316,7.3223,7.329,7.3333,7.3411,7.3506,7.352,7.3618,7.3687,7.3802,7.3846,7.3922,7.3904,7.3933,7.394,7.3947,7.3951,7.3772,7.3938,7.3938,7.3937,7.3937,7.3937,0,7.3029,7.3076,7.3158,7.3253,7.3323,7.3318,7.3393,7.3451,7.3538,7.3603,7.3676,7.3782,7.3867,7.3922,7.4008,7.4058,7.406,7.408,7.4076,7.4085,7.3962,7.3936,7.4077,7.4077,7.4077,7.4077,7.4077,7.4077,7.3116,7.3228,7.3254,7.3392,7.3439,7.3537,7.358,7.3638,7.369,7.3809,7.3881,7.3917,7.3977,7.4068,7.4146,7.416,7.419,7.4212,7.4224,7.4108,7.4093,7.408,7.4055,7.4219,7.4219,7.434,7.4341,7.4342]}]]